     2              OBSERVATION DATA    GPS                 RINEX VERSION / TYPE
ASRINEXO V2.4.4 UX USGS 18-MAR-98 15:25                     PGM / RUN BY / DATE
                                                            COMMENT
Original Marker Name: pico Pico_NCER_1977_USGS              COMMENT
Campaign Name: usgs.northridge                              COMMENT
4-Character Station Name: PICO                              COMMENT
6-Character Antenna Code: DMRCHT                            COMMENT
Vertical Measurement Point: BCR                             COMMENT
Vertical Offset to Rinex Ref. Point: 0.0348                 COMMENT
Radial Measurement Point: ECF                               COMMENT
Radial Offset to Rinex Ref. Point: 0.1897                   COMMENT
Antenna Height from Field Measurement: 1.5510 m             COMMENT
Additional Antenna Identification Info.:                    COMMENT
Turborogue and Ashtech Choke Ring                           COMMENT
Original XYZ: -2524498.0745 -4630153.1458 3577472.9330      COMMENT
New XYZ position is based on association with SCEC monument COMMENT
E1E9I3O4+0031. Position of that monument is believed to be  COMMENT
valid to within 1 m horizontally; vertical accuracy         COMMENT
should be no worse than 3-times this value.                 COMMENT
                                                            COMMENT
Revised Rinex header created by UCSD GPS archive for        COMMENT
GSAC on 11-Nov-1999 (1999:315) 02:58:51 GMT                 COMMENT
For assistance contact dagnew@ucsd.edu or hjohnson@ucsd.edu COMMENT
                                                            COMMENT
PICO PICO_NCER_1977_USGS                                    MARKER NAME
CHS US GEOLOGICAL SURVEY                                    OBSERVER / AGENCY
597 ASHTECH Z-XII3 1E95                                     REC # / TYPE / VERS
330 DORNE-MARGOL. TYPE T                                    ANT # / TYPE
 -2524519.0000 -4630052.0000  3577414.0000                  APPROX POSITION XYZ
        1.5046        0.0000        0.0000                  ANTENNA: DELTA H/E/N
     1     1     0                                          WAVELENGTH FACT L1/2
     5    C1    L1    L2    P1    P2                        # / TYPES OF OBSERV
    30                                                      INTERVAL
  1998     3    11    23    31   30.000000                  TIME OF FIRST OBS
  1998     3    11    23    59    0.000000                  TIME OF LAST OBS
                                                            END OF HEADER
 98  3 11 23 31 30.0000000  0  8 24  4  5  6 30  8  9 10
  20359207.530       78758.68649     58789.69849  20359206.4854   20359211.7284
  21912905.494      327657.52349    233002.88649  21912904.9124   21912909.5184
  20980509.108                                    20980510.105    20980542.4154
  25014613.396                                    25014614.013    25014602.3554
  23505937.804     -211846.45749   -149213.37249  23505936.4394   23505942.0184
  21668592.479       83078.67949     60958.97549  21668590.7874   21668595.9294
  22214786.235      321140.08549    231524.26949  22214785.4844   22214790.9814
  23948842.256     -238933.14149   -176163.08249  23948840.3134   23948847.9994
 98  3 11 23 32  0.0000000  0  8 24  4  5  6 30  8  9 10
  20363203.213       99756.69449     75151.79149  20363202.0594   20363207.4134
  21930967.670      422574.30949    306963.99149  21930967.0774   21930971.2624
  20975152.716                                    20975153.773    20975279.7634
  25005159.255                                    25005160.298    25005202.9854
  23491817.102     -286047.86049   -207032.58149  23491816.0044   23491822.6384
  21672515.475      103696.00149     77024.41449  21672514.2014   21672519.4874
  22231579.180      409387.92149    300288.77649  22231578.2994   22231584.5784
  23935125.406     -311015.04549   -232330.69649  23935122.5294   23935131.2004
 98  3 11 23 32 30.0000000  0  8 24  4  5  6 30  8  9 10
  20367025.964      119846.68049     90806.33549  20367025.2824   20367030.5764
  21948823.634      516409.59149    380082.35949  21948823.1064   21948827.8294
  20969588.115                                    20969835.485    20969830.1224
  24995442.333                                    24995443.335    24995449.1594
  23477439.210     -361601.16949   -265905.24249  23477439.2774   23477444.6294
  21676278.566      123472.02349     92434.29149  21676277.4354   21676283.1474
  22248165.263      496549.12049    368206.56349  22248164.4064   22248169.9814
  23921143.230     -384488.66649   -289582.72049  23921141.7684   23921148.9144
 98  3 11 23 33  0.0000000  0  8 24  4  5  6 30  8  9 10
  20370686.957      139085.56449    105797.67949  20370686.5274   20370691.6574
  21966486.281      609228.03249    452408.38749  21966485.5294   21966490.4404
  20963831.402       -7761.74459                  20963830.342    20963835.6224
  24985473.665      -88121.46059                  24985472.178    24985483.0284
  23462818.895     -438434.09449   -325774.99849  23462818.2494   23462823.8434
  21679895.738      142479.26249    107245.12549  21679894.7014   21679899.8754
  22264554.149      582674.01149    435316.82549  22264553.7604   22264558.6624
  23906911.286     -459277.94749   -347859.98649  23906911.1004   23906917.7484
 98  3 11 23 33 30.0000000  0  8 24  4  5  6 30  8  9 10
  20374198.601      157539.04749    120177.02249  20374198.0264   20374203.4014
  21983966.394      701087.32249    523987.02549  21983966.0974   21983970.8294
  20957895.225     -212219.32659    -32069.24649  20957894.3324   20957899.2484
  24975267.682     -325707.11859   -129911.77749  24975267.2124   24975275.0074
  23447973.605     -516446.50549   -386563.83949  23447972.1974   23447978.6694
  21683382.945      160805.64449    121525.40749  21683381.6174   21683387.2864
  22280761.604      667843.68449    501682.77549  22280761.5604   22280766.6294
  23892444.967     -535298.24849   -407096.46849  23892443.8654   23892451.5294
 98  3 11 23 34  0.0000000  0  8 24  4  5  6 30  8  9 10
  20377571.204      175262.35149    133987.39249  20377570.4224   20377575.7824
  22001274.391      792041.30449    594860.22149  22001274.2254   22001279.0634
  20951792.625     -244288.62049    -57058.30249  20951791.6964   20951796.7514
  24964839.740     -380505.57749   -172611.79649  24964839.3814   24964847.6324
  23432914.198     -595582.60549   -448228.28749  23432913.8014   23432919.2964
  21686753.754      178519.82349    135328.64949  21686752.9934   21686758.3254
  22296803.579      752144.56649    567371.73949  22296803.0644   22296808.8564
  23877759.322     -612471.25849   -467231.20349  23877756.5234   23877766.4614
 98  3 11 23 34 30.0000000  0  8 24  4  5  6 30  8  9 10
  20380816.721      192317.90449    147277.43549  20380816.2744   20380821.4204
  22018423.407      882159.90049    665082.46649  22018422.9234   22018427.4014
  20945537.645     -277158.95449    -82671.54349  20945536.9474   20945541.7904
  24954202.504     -436402.64849   -216167.91049  24954202.6254   24954210.5444
  23417652.128     -675786.83649   -510725.03049  23417652.0574   23417657.4644
  21690024.419      195706.61649    148720.94349  21690023.5194   21690028.7564
  22312694.384      835651.63749    632442.13049  22312694.1034   22312699.7154
  23862870.814     -690710.41949   -528196.71749  23862870.4194   23862877.5994
 98  3 11 23 35  0.0000000  0  8 24  4  5  6 30  8  9 10
  20383951.299      208790.08249    160112.90049  20383950.8144   20383955.8574
  22035429.727      971529.03049    734720.71749  22035429.4304   22035434.4724
  20939142.799     -310764.07649   -108857.35749  20939141.9844   20939146.8934
  24943369.980     -493327.99249   -260525.25849  24943370.9744   24943378.9214
  23402203.992     -756968.63049   -573983.50949  23402203.6324   23402209.5594
  21693208.984      212441.95449    161761.44849  21693208.3344   21693213.3934
  22328447.838      918435.77949    696949.21849  22328447.4184   22328452.6604
  23847793.478     -769942.65049   -589936.05649  23847792.4174   23847799.2734
 98  3 11 23 35 30.0000000  0  8 24  4  5  6 30  8  9 10
  20386990.356      224760.42449    172557.32349  20386989.7814   20386995.2744
  22052303.321     1060200.23049    803815.12749  22052303.6384   22052308.1574
  20932620.796     -345037.70349   -135564.07349  20932619.9394   20932625.1314
  24932353.806     -551221.66549   -305637.19549  24932354.3504   24932361.2514
  23386581.091     -839065.31449   -637954.90949  23386580.8174   23386586.3884
  21696319.989      228790.20849    174500.34149  21696319.0114   21696324.1254
  22344079.041     1000577.61349    760955.80249  22344078.7464   22344083.6554
  23832537.781     -850111.37649   -652405.12249  23832536.3384   23832545.4554
 98  3 11 23 36  0.0000000  0  8 24  4  5  6 30  8  9 10
  20389950.371      240315.39949    184678.08449  20389949.8114   20389955.1924
  22069061.498     1148264.18149    872436.35349  22069061.5574   22069066.1134
  20925989.975     -379883.05849   -162716.29949  20925989.0994   20925994.0094
  24921168.055     -610003.13049   -351440.88749  24921167.9544   24921175.3504
  23370798.448     -922002.63749   -702581.33849  23370797.2244   23370804.5914
  21699373.166      244834.43749    187002.31949  21699372.4574   21699377.7224
  22359602.814     1082154.83049    824522.42949  22359602.4194   22359608.0214
  23817117.954     -931142.45349   -715546.13249  23817115.9744   23817124.8414
 98  3 11 23 36 30.0000000  0  8 24  4  5  6 30  8  9 10
  20392842.717      255514.63649    196521.64749  20392842.3894   20392847.5984
  22085715.060     1235778.92249    940629.62549  22085715.0884   22085719.8514
  20919260.436     -415247.13549   -190272.72049  20919259.7784   20919264.4444
  24909819.769     -669639.69149   -397910.89649  24909819.3414   24909826.3684
  23354869.958    -1005705.28949   -767804.14549  23354869.3104   23354876.9174
  21702379.609      260633.58849    199313.33249  21702378.7764   21702384.4634
  22375027.307     1163210.28849    887682.49249  22375026.7714   22375032.7034
  23801543.439    -1012986.95549   -779320.99849  23801542.1754   23801550.0864
 98  3 11 23 37  0.0000000  0  8 24  4  5  6 30  8  9 10
  20395668.961      270366.26449    208094.34249  20395668.5624   20395673.6774
  22102261.786     1322732.14749   1008385.34649  22102262.1624   22102266.7854
  20912432.337     -451129.46449   -218232.97249  20912431.7354   20912436.3834
  24898307.306     -730138.67249   -445052.91849  24898307.0114   24898314.4204
  23338799.900    -1090154.40249   -833608.58849  23338800.1954   23338806.2784
  21705335.218      276164.53049    211415.34849  21705334.4904   21705339.6894
  22390353.165     1243748.65649    950439.61849  22390352.3424   22390358.3994
  23785815.266    -1095638.76249   -843724.92749  23785814.0744   23785821.6894
 98  3 11 23 37 30.0000000  0  8 24  4  5  6 30  8  9 10
  20398442.302      284939.90749    219450.42449  20398441.7334   20398447.0874
  22118713.429     1409184.98549   1075751.15849  22118713.3034   22118718.1574
  20905520.899     -487449.59049   -246534.35749  20905520.0504   20905524.9664
  24886646.759     -791414.92249   -492800.61349  24886646.3734   24886653.9694
  23322600.834    -1175280.72149   -899940.74549  23322600.8494   23322606.9154
  21708254.218      291503.50349    223367.78249  21708253.4794   21708258.6494
  22405595.051     1323845.75549   1012852.89849  22405594.5104   22405599.7044
  23769951.527    -1179002.54249   -908683.64049  23769950.1064   23769957.6454
 98  3 11 23 38  0.0000000  0  8 24  4  5  6 30  8  9 10
  20401177.290      299312.28249    230649.68249  20401176.8294   20401182.0534
  22135085.989     1495223.08549   1142793.80349  22135085.8394   22135090.6324
  20898541.075     -524128.67149   -275115.45249  20898540.2224   20898545.3264
  24874856.692     -853373.01949   -541079.62049  24874856.0454   24874863.3384
  23306289.273    -1260998.97649   -966734.13049  23306289.5614   23306295.9584
  21711153.463      306739.27949    235239.80549  21711152.4424   21711157.8294
  22420768.110     1403580.57949   1074983.89149  22420767.5164   22420773.5654
  23753972.429    -1262971.85649   -974114.21449  23753971.2884   23753978.0864
 98  3 11 23 38 30.0000000  0  8 24  4  5  6 30  8  9 10
  20403894.446      313591.03049    241775.98149  20403894.0284   20403899.1474
  22151398.636     1580946.73549   1209591.42149  22151398.7164   22151403.0124
  20891513.080     -561061.29149   -303894.11149  20891512.3074   20891517.0474
  24862957.916     -915900.50049   -589802.29149  24862957.1934   24862964.6904
  23289883.022    -1347214.50549  -1033915.01049  23289882.8504   23289888.7874
  21714051.951      321971.34349    247108.92649  21714050.8354   21714056.4734
  22435891.170     1483052.52949   1136910.04549  22435890.6364   22435896.1064
  23737900.111    -1347432.40849  -1039927.57549  23737898.1254   23737907.0934
 98  3 11 23 39  0.0000000  0  8 24  4  5  6 30  8  9 10
  20406603.044      327824.77649    252867.21449  20406602.4734   20406607.9484
  22167662.189     1666411.81549   1276187.54249  22167662.2174   22167667.0014
  20884448.146     -598188.01249   -332824.01349  20884447.2184   20884452.1404
  24850964.341     -978926.97149   -638913.80149  24850963.3964   24850971.7164
  23273387.928    -1433896.55649  -1101459.40449  23273386.8604   23273393.9004
  21716961.307      337260.24049    259022.32949  21716960.3214   21716966.1434
  22450973.330     1562309.44549   1198668.64449  22450972.7154   22450978.2854
  23721746.961    -1432317.13849  -1106071.48849  23721744.8884   23721753.7694
 98  3 11 23 39 30.0000000  0  8 24  4  5  6 30  8  9 10
  20409318.780      342096.04749    263987.68649  20409318.2034   20409323.8764
  22183894.170     1751711.75849   1342655.00349  22183893.8504   22183899.2784
  20877362.826     -635421.63249   -361837.21549  20877361.8334   20877366.8104
  24838896.124    -1042347.06249   -688332.02149  24838895.7604   24838902.6014
  23256818.659    -1520967.88049  -1169307.14349  23256818.7394   23256823.9464
  21719902.223      352714.31549    271064.44749  21719901.5554   21719907.1564
  22466028.026     1641422.26549   1260314.95249  22466027.0934   22466033.3614
  23705529.112    -1517542.38649  -1172480.69549  23705528.6344   23705536.0304
 98  3 11 23 40  0.0000000  0  8 24  4  5  6 30  8  9 10
  20412060.591      356504.22249    275214.83449  20412060.1954   20412065.7274
  22200116.273     1836960.06249   1409082.23049  22200116.3694   22200121.8064
  20870278.216     -672651.27049   -390847.31349  20870277.3784   20870282.1984
  24826772.792    -1106055.45849   -737974.89549  24826772.6634   24826779.8914
  23240197.971    -1608309.86949  -1237365.78549  23240198.2464   23240203.2854
  21722893.042      368430.82949    283311.06249  21722892.2254   21722898.0024
  22481072.589     1720482.01349   1321919.91049  22481072.8974   22481077.6854
  23689263.502    -1603019.34649  -1239086.06349  23689263.1544   23689270.2484
 98  3 11 23 40 30.0000000  0  8 24  4  5  6 30  8  9 10
  20414839.521      371107.69749    286594.16449  20414839.1514   20414844.3854
  22216343.067     1922231.45549   1475527.43849  22216343.5354   22216348.2244
  20863207.492     -709808.47049   -419800.97249  20863206.8924   20863211.4034
  24814603.821    -1170003.93149   -787804.85049  24814603.3984   24814611.0854
  23223541.792    -1695840.19349  -1305571.17749  23223542.2864   23223546.7424
  21725944.921      384467.87649    295807.44949  21725943.8724   21725949.3744
  22496117.608     1799542.92049   1383525.77149  22496117.4724   22496122.6724
  23672959.391    -1688699.03249  -1305849.40149  23672958.6424   23672965.1724
 98  3 11 23 41  0.0000000  0  8 24  4  5  6 30  8  9 10
  20417662.299      385941.43049    298152.91649  20417661.8174   20417667.0544
  22232582.000     2007566.66249   1542022.37449  22232582.1544   22232586.6744
  20856158.001     -746854.19449   -448667.76249  20856156.9434   20856162.0574
  24802396.243    -1234154.60049   -837792.35349  24802396.1484   24802403.7324
  23206862.849    -1783488.99149  -1373868.88749  23206862.7634   23206868.6904
  21729064.167      400860.12249    308580.61249  21729063.3624   21729068.4254
  22511170.821     1878647.19249   1445165.42449  22511170.5314   22511175.7884
  23656622.811    -1774549.00949  -1372745.43849  23656621.1224   23656628.4934
 98  3 11 23 41 30.0000000  0  8 24  4  5  6 30  8  9 10
  20420538.628      401056.35849    309930.77849  20420538.1164   20420543.2164
  22248839.410     2092999.48449   1608593.37149  22248839.3594   22248843.8334
  20849138.183     -783743.43449   -477412.62249  20849137.4824   20849142.5944
  24790158.261    -1298464.74849   -887904.11749  24790157.2114   24790165.7784
  23190172.676    -1871196.67049  -1442212.48149  23190173.2574   23190178.7104
  21732256.111      417634.04049    321651.17849  21732255.3134   21732260.8024
  22526241.655     1957843.79849   1506877.02649  22526241.0684   22526246.7714
  23640258.433    -1860544.76149  -1439755.05949  23640258.4204   23640264.6904
 98  3 11 23 42  0.0000000  0  8 24  4  5  6 30  8  9 10
  20423478.963      416507.95449    321970.98849  20423478.6304   20423484.0184
  22265122.659     2178568.29449   1675270.32949  22265122.6164   22265127.5414
  20842157.094     -820429.36249   -505999.05649  20842156.3354   20842161.2104
  24777895.120    -1362908.76349   -938120.19849  24777895.1604   24777902.8204
  23173479.656    -1958918.08149  -1510566.79349  23173479.8844   23173485.5994
  21735528.298      434829.01549    335049.84749  21735527.6974   21735532.7104
  22541339.627     2037184.56549   1568700.94949  22541339.0364   22541344.7024
  23623876.026    -1946635.55249  -1506838.72749  23623877.3404   23623879.0834
 98  3 11 23 42 30.0000000  0  8 24  4  5  6 30  8  9 10
  20426489.402      432327.70649    334298.07049  20426489.0264   20426494.1274
  22281434.895     2264289.41449   1742065.97949  22281434.4444   22281440.2764
  20835220.208     -856883.16749   -534404.60849  20835219.5584   20835224.2984
  24765612.121    -1427457.12949   -988417.59149  24765612.3034   24765618.9824
  23156787.161    -2046638.29849  -1578920.15749  23156786.9904   23156793.0544
  21738889.386      452491.18849    348812.56649  21738888.5814   21738894.2104
  22556471.816     2116705.00249   1630664.88449  22556470.7904   22556476.7714
  23607483.904    -2032776.51149  -1573961.36949  23607481.9004   23607488.3204
 98  3 11 23 43  0.0000000  0  8 24  4  5  6 30  8  9 10
  20429575.428      448544.24249    346934.33149  20429575.0004   20429580.1314
  22297777.904     2350172.49849   1808987.83049  22297777.5704   22297782.8384
  20828331.920     -893081.45849   -562611.06649  20828331.1964   20828336.1154
  24753317.825    -1492065.61649  -1038761.83449  24753318.1144   24753324.6364
  23140097.410    -2134344.58149  -1647262.66749  23140097.2744   23140102.4134
  21742345.073      470651.11049    362963.13449  21742344.2284   21742349.5604
  22571645.489     2196443.57849   1692798.79149  22571645.2054   22571650.8404
  23591092.157    -2118915.99849  -1641082.93049  23591094.0754   23591096.0634
 98  3 11 23 43 30.0000000  0  8 24  4  5  6 30  8  9 10
  20432739.949      465173.92549    359892.52649  20432739.5194   20432744.7794
  22314154.492     2436231.91649   1876047.07749  22314154.5124   22314159.3744
  20821496.152     -929003.95749   -590602.62049  20821495.2694   20821500.1614
  24741016.517    -1556711.35049  -1089135.11449  24741016.8804   24741021.0994
  23123412.056    -2222026.36849  -1715586.08549  23123411.9654   23123417.5854
  21745900.549      489335.41649    377522.32249  21745899.8274   21745905.3574
  22586864.865     2276421.59049   1755119.26949  22586864.8894   22586870.3834
  23574711.147    -2204998.19849  -1708159.93649  23574711.7074   23574717.4854
 98  3 11 23 44  0.0000000  0  8 24  4  5  6 30  8  9 10
  20435983.020      482216.47549    373172.43549  20435982.6144   20435987.9754
  22330567.320     2522482.00449   1943254.89849  22330567.0704   22330572.3404
  20814715.681     -964635.57849   -618367.52349  20814715.0434   20814719.7774
  24728709.185    -1621387.34249  -1139531.96549  24728706.8624   24728715.6224
  23106736.183    -2309659.21149  -1783871.37449  23106736.6394   23106741.5614
  21749560.998      508570.60149    392510.76249  21749560.1734   21749565.7604
  22602130.718     2356643.62449   1817629.89649  22602130.3514   22602135.5154
  23558347.829    -2290988.01649  -1775164.93449  23558345.6774   23558353.7434
 98  3 11 23 44 30.0000000  0  8 24  4  5  6 30  8  9 10
  20439306.330      499680.49749    386780.76449  20439305.9334   20439311.1604
  22347020.111     2608942.05549   2010626.32549  22347020.1004   22347025.8264
  20807996.534     -999945.17949   -645881.49349  20807995.8544   20808000.5604
  24716400.060    -1686069.75949  -1189933.79849  24716398.7034   24716405.9634
  23090074.632    -2397215.28349  -1852096.84149  23090074.8044   23090080.5894
  21753326.598      528359.17549    407930.41149  21753325.6864   21753331.3624
  22617445.129     2437120.99649   1880339.48549  22617444.9494   22617450.7284
  23542005.215    -2376868.43949  -1842084.71649  23542003.1804   23542009.0744
 98  3 11 23 45  0.0000000  0  8 24  4  5  6 30  8  9 10
  20442712.661      517580.89349    400729.12349  20442712.2654   20442717.6024
  22363516.651     2695631.61749   2078176.59949  22363516.5704   22363522.1264
  20801341.608    -1034917.18349   -673132.39749  20801341.0314   20801345.7394
  24704089.955    -1750758.74149  -1240340.76549  24704088.6254   24704096.2904
  23073431.375    -2484677.19249  -1920248.92449  23073431.4064   23073436.0954
  21757196.371      548694.99849    423776.49249  21757195.3174   21757201.1984
  22632809.978     2517864.11749   1943256.15449  22632809.7924   22632815.8714
  23525683.534    -2462638.35649  -1908918.37749  23525682.0294   23525691.2054
 98  3 11 23 45 30.0000000  0  8 24  4  5  6 30  8  9 10
  20446206.458      535940.85049    415035.58449  20446206.1064   20446211.5354
  22380062.304     2782579.25949   2145927.96549  22380062.3854   22380067.4554
  20794758.018    -1069514.26949   -700091.16649  20794757.1094   20794761.8364
  24691781.546    -1815438.13149  -1290740.25249  24691780.9764   24691789.0834
  23056812.510    -2572009.61049  -1988300.11449  23056812.6214   23056818.1104
  21761175.436      569605.12549    440070.08449  21761174.5824   21761180.5234
  22648226.006     2598875.39349   2006381.77949  22648225.1504   22648231.7604
  23509383.627    -2548294.76349  -1975663.58149  23509382.1034   23509388.3754
 98  3 11 23 46  0.0000000  0  8 24  4  5  6 30  8  9 10
  20449792.438      554785.04649    429719.37249  20449791.9244   20449797.5994
  22396659.034     2869795.07049   2213888.28849  22396659.1364   22396663.7664
  20788249.396    -1103717.28449   -726742.85949  20788248.6454   20788253.5684
  24679476.919    -1880099.06149  -1341125.36049  24679477.8834   24679484.6844
  23040220.920    -2659198.85449  -2056239.73149  23040220.2174   23040226.7124
  21765266.070      591101.70949    456820.64649  21765265.7304   21765271.1214
  22663693.783     2680158.88049   2069719.50449  22663693.7214   22663699.6054
  23493106.443    -2633833.44749  -2042317.06549  23493105.1424   23493112.4024
 98  3 11 23 46 30.0000000  0  8 24  4  5  6 30  8  9 10
  20453470.933      574115.59349    444782.13549  20453470.6474   20453475.8694
  22413306.821     2957280.13049   2282058.42249  22413306.4614   22413311.8154
  20781816.425    -1137522.70049   -753084.73749  20781815.4594   20781820.3644
  24667176.882    -1944736.96049  -1391492.52849  24667176.6194   24667184.4624
  23023655.176    -2746253.33649  -2124074.32849  23023655.1554   23023660.8974
  21769467.952      613181.80449    474025.90649  21769467.1414   21769473.1044
  22679214.321     2761718.90749   2133272.72449  22679213.9174   22679219.0084
  23476852.672    -2719247.70449  -2108873.55549  23476852.1934   23476858.2124
 98  3 11 23 47  0.0000000  0  8 24  4  5  6 30  8  9 10
  20457241.959      593932.40749    460223.80549  20457241.6164   20457246.9014
  22430005.088     3045030.01349   2350434.91949  22430005.0214   22430010.3184
  20775459.277    -1170929.44249   -779115.96649  20775458.5394   20775463.4564
  24654882.854    -2009341.89849  -1441833.97849  24654881.8304   24654889.5324
  23007117.475    -2833158.61849  -2191792.68349  23007116.8644   23007122.5264
  21773783.395      635859.65049    491696.92749  21773782.5944   21773788.2814
  22694787.853     2843558.67149   2197043.91349  22694787.5364   22694792.3244
  23460625.400    -2804522.79649  -2175321.59849  23460623.4384   23460630.1024
 98  3 11 23 47 30.0000000  0  8 24  4  5  6 30  8  9 10
  20461100.930      614210.99349    476025.30049  20461100.4854   20461105.8144
  22446747.571     3133012.23949   2418992.46749  22446747.8004   22446752.2224
  20769173.914    -1203959.56149   -804853.72049  20769173.3014   20769178.1094
  24642590.841    -2073936.76549  -1492167.60249  24642590.8494   24642597.7274
  22990607.515    -2919918.24249  -2259397.55449  22990607.9534   22990612.5094
  21778208.572      659114.03449    509817.20349  21778207.7704   21778213.2544
  22710408.262     2925644.10649   2261006.55549  22710408.3414   22710413.3294
  23444423.998    -2889660.69449  -2241662.73549  23444422.3844   23444429.0374
 98  3 11 23 48  0.0000000  0  8 24  4  5  6 30  8  9 10
  20465048.510      634955.61049    492189.93449  20465048.1224   20465053.5604
  22463537.215     3221240.95649   2487742.07349  22463537.3774   22463541.5044
  20762960.255    -1236612.48849   -830297.55949  20762959.4124   20762964.1604
  24630301.814    -2138518.50549  -1542490.99949  24630302.2074   24630308.7614
  22974127.585    -3006520.87149  -2326880.06149  22974126.8634   22974132.5244
  21782744.288      682949.12249    528389.97949  21782743.4804   21782749.3124
  22726078.522     3007991.54449   2325173.34149  22726078.1934   22726083.9604
  23428251.742    -2974646.01049  -2307884.98149  23428250.4704   23428257.2544
 98  3 11 23 48 30.0000000  0  8 24  4  5  6 30  8  9 10
  20469083.966      656162.13049    508714.48949  20469083.4484   20469088.9714
  22480375.827     3309728.41749   2556693.30449  22480375.7904   22480380.6084
  20756818.086    -1268890.03249   -855448.88749  20756817.3544   20756822.4664
  24618015.286    -2203086.65049  -1592803.79249  24618014.2234   24618020.8394
  22957677.820    -3092964.93349  -2394239.01949  22957677.4614   22957682.9984
  21787389.756      707361.47149    547412.56849  21787389.0944   21787394.9234
  22741799.303     3090604.46349   2389546.99749  22741798.9204   22741805.0994
  23412105.336    -3059496.51049  -2374002.21249  23412104.1284   23412110.8064
 98  3 11 23 49  0.0000000  0  8 24  4  5  6 30  8  9 10
  20473207.728      677832.80949    525600.72549  20473207.3334   20473212.5974
  22497263.162     3398471.78349   2625843.94549  22497263.2794   22497268.3944
  20750746.353    -1300797.27849   -880311.67649  20750745.7784   20750750.5004
  24605730.726    -2267642.97949  -1643107.38349  24605730.2574   24605736.5764
  22941259.069    -3179245.97949  -2461470.96249  22941258.4874   22941264.3764
  21792143.580      732342.15949    566878.01749  21792142.8434   21792148.3364
  22757568.537     3173472.12949   2454119.14949  22757567.9744   22757574.9284
  23395981.880    -3144225.36749  -2440024.63849  23395981.1694   23395987.3824
 98  3 11 23 49 30.0000000  0  8 24  4  5  6 30  8  9 10
  20477416.237      699948.63949    542833.83349  20477415.8204   20477420.9404
  22514195.284     3487450.48249   2695177.96549  22514195.3474   22514200.1534
  20744742.405    -1332348.39649   -904896.96049  20744741.5644   20744746.4454
  24593446.026    -2332199.14949  -1693410.82649  24593445.0024   24593451.5444
  22924865.249    -3265396.92849  -2528601.52349  22924864.9364   22924870.7834
  21797004.479      757886.28749    586782.50749  21797003.4984   21797009.3154
  22773383.884     3256582.32249   2518880.29149  22773384.0944   22773389.3644
  23379879.274    -3228845.15249  -2505962.07349  23379877.3984   23379885.1994
 98  3 11 23 50  0.0000000  0  8 24  4  5  6 30  8  9 10
  20481709.397      722509.45449    560413.68549  20481708.9984   20481714.2364
  22531170.618     3576656.76849   2764689.31649  22531170.4954   22531174.9744
  20738807.373    -1363537.11049   -929199.85249  20738806.6934   20738811.2734
  24581165.039    -2396735.54249  -1743698.86949  24581164.5744   24581171.0484
  22908491.564    -3351441.16149  -2595648.92349  22908491.5014   22908496.4164
  21801972.389      783992.43249    607124.93049  21801971.5694   21801976.8874
  22789247.917     3339947.33349   2583839.99549  22789247.7024   22789253.4194
  23363796.237    -3313361.24849  -2571818.70849  23363794.7014   23363801.2834
 98  3 11 23 50 30.0000000  0  8 24  4  5  6 30  8  9 10
  20486081.273      745483.63049    578315.63549  20486081.0514   20486086.1114
  22548178.623     3666034.72049   2834334.43149  22548178.6814   22548183.7124
  20732937.899    -1394381.82249   -953234.68849  20732937.1164   20732941.8934
  24568882.562    -2461279.84249  -1793993.05949  24568881.4474   24568889.0524
  22892130.776    -3437416.66349  -2662642.78849  22892130.8684   22892135.8514
  21807040.107      810623.25249    627876.19149  21807039.5614   21807044.6244
  22805152.779     3423527.89149   2648967.64049  22805151.6624   22805158.3804
  23347728.913    -3397795.21349  -2637611.34349  23347727.2654   23347735.3474
 98  3 11 23 51  0.0000000  0  8 24  4  5  6 30  8  9 10
  20490528.016      768851.21049    596524.13549  20490527.7234   20490532.9674
  22565212.549     3755548.30849   2904085.23749  22565213.0384   22565218.0374
  20727134.068    -1424881.06949   -977000.32849  20727133.0444   20727137.9884
  24556597.622    -2525838.15249  -1844298.17349  24556596.7024   24556603.8424
  22875782.616    -3523326.73249  -2729585.64349  22875782.7054   22875787.7144
  21812208.266      837782.01249    649038.83349  21812207.4134   21812213.1674
  22821095.370     3507306.68149   2714249.76649  22821096.1844   22821100.6384
  23331679.803    -3482133.63749  -2703329.55549  23331678.6854   23331685.2934
 98  3 11 23 51 30.0000000  0  8 24  4  5  6 30  8  9 10
  20495049.510      792611.47649    615038.62149  20495049.0434   20495054.4394
  22582269.972     3845184.90749   2973931.91149  22582270.0304   22582275.0914
  20721395.266    -1455038.52549  -1000499.64749  20721394.5374   20721399.3324
  24544308.016    -2590420.21449  -1894621.80049  24544307.0104   24544314.0784
  22859445.432    -3609179.83749  -2796484.12849  22859445.2454   22859450.0884
  21817475.382      865460.86549    670606.74449  21817474.5574   21817480.2224
  22837074.302     3591275.34549   2779679.84549  22837073.4734   22837079.7244
  23315651.338    -3566363.70749  -2768963.33449  23315650.3414   23315657.0844
 98  3 11 23 52  0.0000000  0  8 24  4  5  6 30  8  9 10
  20499647.599      816774.95849    633867.30549  20499647.2604   20499652.7034
  22599352.242     3934952.63249   3043880.75249  22599352.0844   22599356.7634
  20715719.765    -1484863.66449  -1023740.00849  20715718.9264   20715723.9744
  24532011.683    -2655036.60749  -1944972.17049  24532011.0824   24532018.0474
  22843121.061    -3694965.12449  -2863329.74949  22843121.2164   22843126.2454
  21822837.666      893640.29449    692564.71449  21822836.8544   21822843.0914
  22853085.578     3675415.55049   2845243.58849  22853084.9984   22853090.8804
  23299644.168    -3650481.93849  -2834509.94649  23299642.7734   23299650.3974
 98  3 11 23 52 30.0000000  0  8 24  4  5  6 30  8  9 10
  20504317.987      841317.81649    652991.60749  20504317.5764   20504322.8544
  22616457.512     4024840.61849   3113923.29949  22616456.9234   22616461.8354
  20710105.007    -1514369.50949  -1046731.57649  20710104.1434   20710109.2674
  24519703.366    -2719716.03849  -1995371.67049  24519702.9834   24519710.3564
  22826810.178    -3780679.71849  -2930120.29149  22826809.1494   22826814.9974
  21828293.335      922310.03049    714904.73649  21828292.5974   21828298.5984
  22869122.052     3759687.83449   2910910.24049  22869121.5574   22869127.5094
  23283658.431    -3734487.10049  -2899968.46649  23283657.1804   23283664.7174
 98  3 11 23 53  0.0000000  0  8 24  4  5  6 30  8  9 10
  20509055.484      866213.19149    672390.59849  20509055.0474   20509060.2284
  22633582.355     4114833.17949   3184047.34049  22633582.3274   22633587.4934
  20704544.446    -1543590.50849  -1069501.18849  20704543.7134   20704548.6674
  24507379.214    -2784479.38549  -2045836.56749  24507379.0854   24507385.2484
  22810509.005    -3866341.48449  -2996869.69449  22810508.6234   22810513.5814
  21833835.366      951433.28749    737598.15349  21833834.6814   21833840.1894
  22885178.706     3844066.05849   2976659.45549  22885177.9914   22885184.4684
  23267692.138    -3818390.92149  -2965348.05949  23267691.0734   23267698.3874
 98  3 11 23 53 30.0000000  0  8 24  4  5  6 30  8  9 10
  20513862.217      891472.86849    692073.46249  20513861.7694   20513867.1734
  22650731.844     4204954.78249   3254271.93149  22650732.4644   22650736.9304
  20699038.787    -1572522.90449  -1092045.91449  20699038.0544   20699042.8674
  24495040.527    -2849319.01549  -2096360.91149  24495039.7174   24495047.1494
  22794218.937    -3951946.16149  -3063574.59449  22794219.5804   22794223.8234
  21839461.383      980997.48049    760635.16249  21839460.2264   21839466.2954
  22901257.595     3928560.92249   3042499.54949  22901257.0604   22901263.5974
  23251748.261    -3902176.41449  -3030635.43449  23251746.7014   23251754.1884
 98  3 11 23 54  0.0000000  0  8 24  4  5  6 30  8  9 10
  20518731.295      917059.75849    712011.29449  20518730.8484   20518736.1244
  22667902.963     4295188.19149   3324583.63449  22667903.3174   22667908.1244
  20693587.707    -1601168.74449  -1114367.34649  20693587.1684   20693591.7554
  24482684.298    -2914250.10549  -2146956.51649  24482683.1714   24482691.0214
  22777939.298    -4037497.51449  -3130237.93349  22777939.5914   22777943.6644
  21845169.319     1010993.20949    784008.42649  21845168.6044   21845174.1984
  22917355.587     4013156.78649   3108418.33949  22917355.1954   22917361.0834
  23235823.409    -3985862.07449  -3095845.01049  23235822.3854   23235829.1354
 98  3 11 23 54 30.0000000  0  8 24  4  5  6 30  8  9 10
  20523652.845      942922.48249    732164.06449  20523652.6914   20523657.6524
  22685086.146     4385485.47649   3394945.11249  22685085.6524   22685090.9004
  20688185.910    -1629555.62949  -1136486.99649  20688185.0284   20688189.9454
  24470303.407    -2979311.53649  -2197653.68849  24470302.5824   24470310.3014
  22761664.315    -4123022.96749  -3196881.09549  22761664.1884   22761668.9634
  21850951.927     1041380.64549    807686.92649  21850951.3314   21850957.4454
  22933467.792     4097826.69749   3174394.83649  22933468.0204   22933473.7194
  23219909.418    -4069490.62149  -3161010.07549  23219908.7424   23219915.2374
 98  3 11 23 55  0.0000000  0  8 24  4  5  6 30  8  9 10
  20528628.584      969070.17449    752538.88449  20528628.1064   20528633.4634
  22702283.931     4475860.85349   3465367.45149  22702284.2964   22702289.8054
  20682833.430    -1657683.12549  -1158404.52549  20682832.5934   20682837.6364
  24457901.547    -3044482.67149  -2248436.35649  24457901.6374   24457908.0844
  22745396.694    -4208509.12349  -3263493.63849  22745396.6404   22745401.4614
  21856809.946     1072164.43349    831674.26149  21856809.3064   21856815.0714
  22949599.177     4182597.45249   3240449.90849  22949599.1334   22949604.9954
  23204004.158    -4153073.60749  -3226139.65249  23204002.8634   23204009.7164
 98  3 11 23 55 30.0000000  0  8 24  4  5  6 30  8  9 10
  20533657.673      995498.30149    773132.22549  20533657.2154   20533662.6934
  22719495.387     4566307.14649   3535845.04249  22719495.3814   22719501.2834
  20677531.386    -1685545.55349  -1180115.50549  20677530.7334   20677535.3184
  24445477.278    -3109770.67049  -2299310.07449  24445476.5894   24445485.4994
  22729137.711    -4293949.94249  -3330070.85949  22729137.4264   22729143.2034
  21862747.470     1103365.91449    855987.07949  21862746.9654   21862752.7044
  22965747.920     4267459.23849   3306575.91349  22965747.9344   22965753.5994
  23188101.638    -4236641.65149  -3291257.56149  23188099.7734   23188107.8894
 98  3 11 23 56  0.0000000  0  8 24  4  5  6 30  8  9 10
  20538733.663     1022172.93249    793917.64649  20538733.1214   20538738.5274
  22736712.193     4656781.15449   3606344.23049  22736712.1624   22736717.3334
  20672273.613    -1713175.31149  -1201645.19049  20672272.9434   20672277.8944
  24433025.650    -3175203.57649  -2350296.72549  24433025.3984   24433033.6154
  22712884.404    -4379360.53749  -3396624.53449  22712884.7174   22712889.7014
  21868760.197     1134961.96649    880607.35849  21868759.3034   21868764.9904
  22981905.987     4352369.84549   3372739.96449  22981905.7284   22981911.5184
  23172191.113    -4320251.10349  -3356407.72649  23172189.4874   23172196.3484
 98  3 11 23 56 30.0000000  0  8 24  4  5  6 30  8  9 10
  20543859.416     1049108.74349    814906.58549  20543859.2424   20543864.3034
  22753935.845     4747291.54149   3676871.76349  22753935.8084   22753940.4594
  20667059.632    -1740575.25549  -1222995.79049  20667058.9534   20667063.6034
  24420547.484    -3240776.92449  -2401392.80849  24420547.3474   24420555.9854
  22696637.401    -4464739.95449  -3463153.90049  22696637.1654   22696642.4294
  21874847.736     1166952.93149    905535.34849  21874846.7694   21874852.4254
  22998073.114     4437328.21049   3438941.23549  22998072.8154   22998079.1054
  23156272.075    -4403905.98949  -3421593.30849  23156270.8074   23156278.7704
 98  3 11 23 57  0.0000000  0  8 24  4  5  6 30  8  9 10
  20549037.245     1076318.25249    836108.79749  20549036.7184   20549041.9894
  22771168.474     4837849.62249   3747436.46349  22771168.0284   22771173.7864
  20661892.089    -1767731.07449  -1244156.16849  20661891.3404   20661896.1714
  24408045.143    -3306477.93649  -2452588.39149  24408045.0424   24408052.5664
  22680396.688    -4550085.86149  -3529657.15749  22680395.9994   22680401.6624
  21881013.820     1199355.84949    930784.35349  21881013.0804   21881018.8604
  23014249.339     4522333.85449   3505179.34549  23014248.8374   23014255.0484
  23140347.528    -4487589.66349  -3486801.31249  23140345.2324   23140353.1954
 98  3 11 23 57 30.0000000  0  8 24  4  5  6 30  8  9 10
  20554267.784     1103805.04449    857527.07649  20554267.2874   20554272.8624
  22788407.443     4928440.91249   3818027.04449  22788407.2944   22788412.9354
  20656772.164    -1794636.32649  -1265121.29949  20656771.3354   20656776.3014
  24395512.185    -3372338.87949  -2503908.58149  24395511.4994   24395520.6114
  22664161.166    -4635403.99349  -3596138.77049  22664160.6784   22664165.7454
  21887256.887     1232163.54649    956348.76749  21887256.0484   21887261.7014
  23030431.761     4607373.07849   3571443.59249  23030431.3044   23030437.7214
  23124421.837    -4571279.14449  -3552013.85849  23124420.1674   23124427.5294
 98  3 11 23 58  0.0000000  0  8 24  4  5  6 30  8  9 10
  20559548.323     1131554.46649    879149.99749  20559548.1614   20559553.2004
  22805650.568     5019054.18249   3888634.74549  22805650.2774   22805655.8674
  20651696.717    -1821307.86949  -1285904.31949  20651696.1184   20651700.7164
  24382943.096    -3438390.82349  -2555377.60949  24382942.7304   24382949.5514
  22647925.383    -4720723.72849  -3662621.63149  22647924.8484   22647929.9814
  21893569.653     1265336.68349    982197.94149  21893569.0484   21893574.7804
  23046618.404     4692434.75949   3637725.34549  23046618.2984   23046624.4274
  23108498.026    -4654959.13849  -3617219.01049  23108496.9304   23108504.5504
 98  3 11 23 58 30.0000000  0  8 24  4  5  6 30  8  9 10
  20564881.783     1159581.67149    900989.37049  20564881.5294   20564886.7774
  22822899.031     5109695.12649   3959264.01349  22822898.8664   22822903.7224
  20646668.881    -1847729.45849  -1306492.56349  20646668.1794   20646672.8964
  24370338.967    -3504627.40049  -2606990.52149  24370338.9454   24370346.4094
  22631687.807    -4806052.35149  -3729111.42549  22631687.9384   22631693.5674
  21899951.651     1298873.62749   1008330.59349  21899951.1494   21899956.5674
  23062811.672     4777529.97949   3704033.25349  23062811.4984   23062817.7594
  23092584.110    -4738587.49249  -3682383.93149  23092582.9284   23092590.4614
